Regional Weather Roundup
Issued by NWS Kansas City/Pleasant Hill, MO

Home | Current Version | Previous Version | Graphics & Text | Print | Product List | Glossary Off
Versions: 1 2 3 4 5 6 7 8 9 10 11 12 13 14 15 16 17 18 19 20 21 22 23 24 25 26 27 28 29 30 31 32 33 34 35 36 37 38 39 40 41 42 43 44 45 46 47 48 49 50

059
ASUS43 KEAX 291010
RWREAX

WEATHER ROUNDUP FOR EASTERN KANSAS AND NORTHWEST MISSOURI
NATIONAL WEATHER SERVICE KANSAS CITY/PLEASANT HILL MO
500 AM CDT FRI JUL 29 2016

KSZ040-057-103>105-MOZ028-029-037-043-291100-
...KANSAS CITY METROPOLITAN AREA...

CITY           SKY/WX    TMP DP  RH WIND       PRES   REMARKS
K.C. INTL      PTCLDY    69  63  81 NE9       29.94F
K.C. DOWNTOWN  CLEAR     72  65  78 NE6       29.92F
LEES SUMMIT    CLEAR     71  66  84 NE7       29.93F
OLATHE - IXD   CLEAR     68  67  96 CALM      29.93F
OLATHE - OJC   CLEAR     68  67  96 NE3       29.92F
LAWRENCE       CLEAR     66  65  96 NW5       29.93F

$$

MOZ001>008-011>017-020>025-030>033-038>040-044>046-053-054-291100-
...NORTHERN AND CENTRAL MISSOURI...

CITY           SKY/WX    TMP DP  RH WIND       PRES   REMARKS
ST. JOSEPH     PTCLDY    66  64  93 N6        29.95F
MOSBY          SUNNY     68  64  88 CALM      29.93F
WHITEMAN AFB   PTCLDY    71  71 100 NE7       29.92F
CLINTON        MOCLDY    68  68 100 CALM      29.92F
SEDALIA        MOCLDY    73  70  90 NE3       29.93F
WARSAW         NOT AVBL
CHILLICOTHE      N/A     68  65  90 N5        29.95F
KIRKSVILLE     CLEAR     65  63  93 N6        29.96R

$$

MOZ041-047>049-056>058-063>065-088>090-097-291100-
...EASTERN AND SOUTHERN MISSOURI...

CITY           SKY/WX    TMP DP  RH WIND       PRES   REMARKS
ST. LOUIS INTL PTCLDY    74  69  85 NW3       29.93R
SPIRIT OF STL  PTCLDY    74  70  87 N3        29.91R
COLUMBIA       PTCLDY    70  68  93 CALM      29.94S
JEFFERSON CITY PTCLDY    70  69  97 CALM      29.92F
ROLLA          PTCLDY    67  65  93 NE3       29.93S
OSAGE BEACH    PTCLDY    69  69 100 E3        29.93F
SPRINGFIELD    CLEAR     71  68  90 SE6       29.91F
BRANSON        CLEAR     70  68  94 CALM      29.94F
JOPLIN         CLEAR     69  67  93 CALM      29.91F
WEST PLAINS    CLEAR     67  64  90 CALM      29.96F

$$

IAZ060-094-KSZ022-034>040-054-083-096-NEZ052-066-093-291100-
...KANSAS...SOUTHEAST NEBRASKA AND IOWA...

CITY           SKY/WX    TMP DP  RH WIND       PRES   REMARKS
TOPEKA         PTCLDY    66  65  96 W3        29.95S
MANHATTAN      CLOUDY    68  67  96 CALM      29.97R
EMPORIA        MOCLDY    67  66  97 W3        29.97R
CHANUTE        PTCLDY    69  66  90 NW3       29.95R
WICHITA        CLOUDY    71  68  90 N3        29.98F
OMAHA          CLOUDY    68  64  87 N6        30.00S
LINCOLN        CLOUDY    69  65  86 N3        30.01S
FALLS CITY     MOCLDY    69  66  90 N6        29.96F
LAMONI         CLEAR     63  63 100 N6        29.97F
DES MOINES     CLOUDY    67  63  87 N6        29.96F

$$





USA.gov is the U.S. government's official web portal to all federal, state and local government web resources and services.